JA3YAI-13 Weather Reports


Display with metric or nautical units.
time (UTC)temp
F
wind
direction
speed
MPH
gust
MPH
rain 1hr
in
rain 24hr
in
rain mn
in
humidity
%
barometer
mb
20260509101651 60 315 0.0 9.0 0.00 0.00 0.00 69 1009.5
20260509100651 61 315 0.0 9.0 0.00 0.00 0.00 67 1009.3
20260509095651 63 315 0.0 9.0 0.00 0.00 0.00 64 1009.3
20260509094651 65 315 0.0 9.0 0.00 0.00 0.00 61 1009.0
20260509093651 68 315 0.0 9.0 0.00 0.00 0.00 56 1009.0
20260509092651 69 315 0.0 9.0 0.00 0.00 0.00 54 1008.8
20260509091651 69 315 0.0 9.0 0.00 0.00 0.00 53 1008.9
20260509090651 70 315 0.0 9.0 0.00 0.00 0.00 43 1008.6
20260509085651 73 315 0.0 9.0 0.00 0.00 0.00 38 1008.9
20260509084652 63 248 7.0 9.0 0.00 0.00 0.00 57 1010.4
20260509083652 63 248 7.0 9.0 0.00 0.00 0.00 57 1010.4
20260509082652 63 248 7.0 9.0 0.00 0.00 0.00 57 1010.4
20260509081652 63 248 7.0 9.0 0.00 0.00 0.00 57 1010.4
20260509080652 63 248 7.0 9.0 0.00 0.00 0.00 57 1010.4
20260509075652 63 248 7.0 9.0 0.00 0.00 0.00 57 1010.4
20260509074652 63 248 7.0 9.0 0.00 0.00 0.00 57 1010.4
20260509073652 63 248 7.0 9.0 0.00 0.00 0.00 57 1010.4
20260509072652 63 248 7.0 9.0 0.00 0.00 0.00 57 1010.4
20260509071652 63 248 7.0 9.0 0.00 0.00 0.00 57 1010.4
20260509070652 63 248 7.0 9.0 0.00 0.00 0.00 57 1010.4
20260509065652 63 248 7.0 9.0 0.00 0.00 0.00 57 1010.4
20260509064652 63 248 7.0 9.0 0.00 0.00 0.00 57 1010.4
20260509063652 63 248 7.0 9.0 0.00 0.00 0.00 57 1010.4
20260509062652 63 248 7.0 9.0 0.00 0.00 0.00 57 1010.4
20260509061651 63 248 7.0 9.0 0.00 0.00 0.00 57 1010.4
20260509060651 63 248 7.0 9.0 0.00 0.00 0.00 57 1010.4
20260509055651 63 248 7.0 9.0 0.00 0.00 0.00 57 1010.4
20260509054651 63 248 7.0 9.0 0.00 0.00 0.00 57 1010.4
20260509053651 63 248 7.0 9.0 0.00 0.00 0.00 57 1010.4
20260509052651 63 248 7.0 9.0 0.00 0.00 0.00 57 1010.4
20260509051651 63 248 7.0 9.0 0.00 0.00 0.00 57 1010.4
20260509050651 63 248 7.0 9.0 0.00 0.00 0.00 57 1010.4
20260509045651 63 248 7.0 9.0 0.00 0.00 0.00 57 1010.4
20260509044651 63 248 7.0 9.0 0.00 0.00 0.00 57 1010.4
20260509043651 63 248 7.0 9.0 0.00 0.00 0.00 57 1010.4
20260509042651 63 248 7.0 9.0 0.00 0.00 0.00 57 1010.4
20260509041653 63 248 7.0 9.0 0.00 0.00 0.00 57 1010.4
20260509040652 63 248 7.0 9.0 0.00 0.00 0.00 57 1010.4
20260509035652 63 248 7.0 9.0 0.00 0.00 0.00 57 1010.4
20260509034652 63 248 7.0 9.0 0.00 0.00 0.00 57 1010.4
20260509033652 63 248 7.0 9.0 0.00 0.00 0.00 57 1010.4
20260509032652 63 248 7.0 9.0 0.00 0.00 0.00 57 1010.4
20260509031652 63 248 7.0 9.0 0.00 0.00 0.00 57 1010.4
20260509030652 63 248 7.0 9.0 0.00 0.00 0.00 57 1010.4
20260509025652 63 248 7.0 9.0 0.00 0.00 0.00 57 1010.4
20260509024652 63 248 7.0 9.0 0.00 0.00 0.00 57 1010.4
20260509023652 63 248 7.0 9.0 0.00 0.00 0.00 57 1010.4
20260509022652 63 248 7.0 9.0 0.00 0.00 0.00 57 1010.4
20260509021652 63 248 7.0 9.0 0.00 0.00 0.00 57 1010.4
20260509020651 64 168 3.0 9.0 0.00 0.00 0.00 55 1010.6
20260509015651 65 118 1.0 9.0 0.00 0.00 0.00 55 1010.7
20260509014651 65 87 1.0 9.0 0.00 0.00 0.00 55 1010.9
20260509013651 66 0 0.0 9.0 0.00 0.00 0.00 57 1010.7
20260509012651 66 135 0.0 9.0 0.00 0.00 0.00 55 1010.9
20260509011651 64 248 0.0 9.0 0.00 0.00 0.00 55 1010.9
20260509010651 63 116 2.0 9.0 0.00 0.00 0.00 53 1010.9
20260509005651 64 33 1.0 9.0 0.00 0.00 0.00 56 1010.8
20260509004651 63 244 2.0 9.0 0.00 0.00 0.00 57 1011.1
20260509003651 63 297 2.0 9.0 0.00 0.00 0.00 58 1010.9
20260509002651 64 116 2.0 9.0 0.00 0.00 0.00 58 1011.0
20260509001651 64 51 1.0 9.0 0.00 0.00 0.00 59 1010.7
20260509000653 63 90 1.0 9.0 0.00 0.00 0.00 61 1010.8
20260508235652 63 45 1.0 9.0 0.00 0.00 0.00 62 1010.7
20260508234652 62 0 1.0 9.0 0.00 0.00 0.00 61 1010.5
20260508233652 62 294 0.0 9.0 0.00 0.00 0.00 62 1010.7
20260508232652 61 155 0.0 9.0 0.00 0.00 0.00 61 1010.9
20260508231652 62 62 1.0 9.0 0.00 0.00 0.00 61 1010.6
20260508230652 61 270 1.0 9.0 0.00 0.00 0.00 61 1010.7
20260508225652 59 219 1.0 9.0 0.00 0.00 0.00 67 1010.7
20260508224652 59 28 0.0 9.0 0.00 0.00 0.00 67 1010.3
20260508223652 59 30 1.0 9.0 0.00 0.00 0.00 68 1010.2
20260508222652 59 75 1.0 9.0 0.00 0.00 0.00 67 1010.2
20260508221652 59 203 0.0 9.0 0.00 0.00 0.00 70 1010.1
20260508220652 58 90 1.0 9.0 0.00 0.00 0.00 70 1009.9
20260508215651 57 346 0.0 9.0 0.00 0.00 0.00 72 1010.0
20260508214651 57 3 1.0 9.0 0.00 0.00 0.00 73 1010.0
20260508213651 57 68 0.0 9.0 0.00 0.00 0.00 73 1010.1
20260508212651 57 3 0.0 9.0 0.00 0.00 0.00 74 1009.9
20260508211651 56 0 0.0 9.0 0.00 0.00 0.00 74 1009.7
20260508210651 56 23 0.0 9.0 0.00 0.00 0.00 74 1009.5
20260508205651 56 86 0.0 9.0 0.00 0.00 0.00 74 1009.4
20260508204651 56 318 0.0 9.0 0.00 0.00 0.00 73 1009.3
20260508203651 56 270 1.0 9.0 0.00 0.00 0.00 72 1009.1
20260508202651 56 135 0.0 9.0 0.00 0.00 0.00 71 1009.2
20260508201651 56 338 1.0 9.0 0.00 0.00 0.00 72 1009.1
20260508200653 56 338 1.0 9.0 0.00 0.00 0.00 72 1008.8
20260508195652 56 315 3.0 9.0 0.00 0.00 0.00 71 1008.8
20260508194652 56 297 1.0 9.0 0.00 0.00 0.00 71 1008.6
20260508193652 56 248 0.0 9.0 0.00 0.00 0.00 71 1008.6
20260508192652 57 264 0.0 9.0 0.00 0.00 0.00 71 1008.1
20260508191652 57 261 1.0 9.0 0.00 0.00 0.00 72 1008.0
20260508190652 56 237 1.0 9.0 0.00 0.00 0.00 73 1007.9
20260508185652 56 68 0.0 9.0 0.00 0.00 0.00 74 1007.8
20260508184652 57 109 2.0 9.0 0.00 0.00 0.00 72 1007.7
20260508183652 57 256 1.0 9.0 0.00 0.00 0.00 70 1007.5
20260508182652 57 118 1.0 9.0 0.00 0.00 0.00 70 1007.2
20260508181652 58 270 2.0 9.0 0.00 0.00 0.00 70 1007.4
20260508180651 57 60 2.0 8.0 0.00 0.00 0.00 70 1007.1
20260508175651 57 283 1.0 8.0 0.00 0.00 0.00 70 1007.1
20260508174651 58 270 0.0 8.0 0.00 0.00 0.00 69 1007.1
20260508173651 57 268 0.0 6.0 0.00 0.00 0.00 70 1006.9
20260508172651 57 181 0.0 6.0 0.00 0.00 0.00 72 1006.9
20260508171651 57 135 0.0 6.0 0.00 0.00 0.00 73 1007.0
20260508170651 57 135 0.0 6.0 0.00 0.00 0.00 73 1006.6
20260508165651 58 135 0.0 6.0 0.00 0.00 0.00 72 1006.9
20260508164651 58 0 0.0 6.0 0.00 0.00 0.00 74 1006.7
20260508163651 58 0 0.0 6.0 0.00 0.00 0.00 72 1006.9
20260508162653 58 338 2.0 6.0 0.00 0.00 0.00 73 1006.6
20260508161652 58 298 0.0 6.0 0.00 0.00 0.00 72 1006.6
20260508160652 59 253 1.0 6.0 0.00 0.00 0.00 69 1006.6
20260508155652 59 243 1.0 6.0 0.00 0.00 0.00 67 1006.6
20260508154652 59 224 0.0 6.0 0.00 0.00 0.00 66 1006.6
20260508153652 59 42 1.0 6.0 0.00 0.00 0.00 64 1006.3
20260508152652 59 314 1.0 6.0 0.00 0.00 0.00 67 1006.3
20260508151652 59 203 1.0 6.0 0.00 0.00 0.00 69 1006.3
20260508150652 59 180 0.0 0.0 0.00 0.00 0.00 71 1006.4
20260508145652 59 225 0.0 18.0 0.00 0.00 0.00 66 1006.4
20260508144652 59 216 0.0 18.0 0.00 0.00 0.00 67 1006.4
20260508143652 59 270 0.0 18.0 0.00 0.00 0.00 68 1006.3
20260508142652 59 270 0.0 18.0 0.00 0.00 0.00 69 1006.2
20260508141652 59 270 0.0 18.0 0.00 0.00 0.00 71 1006.1
20260508140652 58 315 0.0 18.0 0.00 0.00 0.00 71 1005.8
20260508135652 59 315 0.0 18.0 0.00 0.00 0.00 71 1005.8
20260508134651 59 315 0.0 18.0 0.00 0.00 0.00 69 1006.1
20260508133651 59 315 0.0 18.0 0.00 0.00 0.00 67 1005.9
20260508132651 60 293 1.0 18.0 0.00 0.00 0.00 66 1006.1
20260508131651 60 314 0.0 18.0 0.00 0.00 0.00 67 1006.0
20260508130651 60 61 0.0 18.0 0.00 0.00 0.00 66 1006.0
20260508125651 61 50 0.0 18.0 0.00 0.00 0.00 65 1005.9
20260508124651 61 90 1.0 18.0 0.00 0.00 0.00 65 1005.8
20260508123651 61 293 1.0 18.0 0.00 0.00 0.00 64 1005.6
20260508122651 61 15 2.0 18.0 0.00 0.00 0.00 66 1005.4
20260508121653 62 51 1.0 18.0 0.00 0.00 0.00 68 1005.3
20260508120652 62 293 0.0 18.0 0.00 0.00 0.00 68 1005.0
20260508115652 62 282 1.0 18.0 0.00 0.00 0.00 71 1004.8
20260508114652 62 73 1.0 18.0 0.00 0.00 0.00 70 1004.5
20260508113652 63 65 1.0 18.0 0.00 0.00 0.00 65 1004.4
20260508112652 63 135 0.0 18.0 0.00 0.00 0.00 61 1004.2
20260508111652 63 23 1.0 18.0 0.00 0.00 0.00 60 1003.9
20260508110652 64 300 1.0 18.0 0.00 0.00 0.00 61 1003.8
20260508105652 64 85 2.0 18.0 0.00 0.00 0.00 61 1003.4
20260508104652 64 242 3.0 18.0 0.00 0.00 0.00 63 1003.2
20260508103652 65 269 1.0 18.0 0.00 0.00 0.00 68 1002.9
20260508102652 65 336 1.0 18.0 0.00 0.00 0.00 70 1002.6